SOYUZ-MS 07

Last updated on Mon Jun 04 2018 00:15:06 GMT+0000 (Coordinated Universal Time)

1 43063U 17081A 18153.80048451 .00001618 00000-0 31691-4 0 9991 2 43063 51.6419 90.4287 0003788 145.4594 236.6455 15.54124171116282
UTC large
Height (km)
Speed (km/s)
/
Latitude / Longitude
Inclination (degrees)
Orbital Period (minutes)
Azimuth
Elevation
Range (km)
Doppler Factor

Next 0 passes for location: London (51.5072 / 0.1276)

Sorry there are no passes over London.